Flag for Mexico Weather past 2 weeks in Monterrey, Nuevo León, Mexico

Now
79 °F

Fog.


Feels Like: 82 °F
Forecast: 70 / 90 °F
Wind: 6 mph from Southeast

Location: Monterrey / Gen Maria

Current Time: Apr 27, 2015 at 1:26:22 AM

Latest Report: Apr 27, 2015 at 1:02 AM


Visibility: 1 mi

Pressure: 29.56 "Hg

Humidity: 89%

Dew point: 75 °F

Location of MonterreyLocation

Historic Weather in Monterrey — Graph

°F

Monterrey temperature yesterday

Maximum temperature yesterday: 95 °F (at 3:45 PM)
Minimum temperature yesterday: 70 °F (at 5:51 AM)
Average temperature yesterday: 81 °F

Past Weeks' High & Low Weather Summary

 TemperatureHumidityPressure
High95 °F (Apr 26, 3:45 PM)100% (Apr 12, 9:59 PM)30.23 "Hg (Apr 12, 9:59 PM)
Low37 °F (Apr 22, 3:42 AM)28% (Apr 26, 3:45 PM)29.49 "Hg (Apr 26, 6:46 PM)
Average73 °F82%29.86 "Hg
* Reported Apr 11 10:46 PM — Apr 26 10:46 PM, Monterrey, Weather by CustomWeather, © 2015

Note: Actual official high and low records may vary slightly from our data, if they occured in-between our weather recording intervals... More about our weather records

Advertising

Monterrey weather history for previous 24 hours

 ConditionsComfort  
Time TempWeatherWind HumidityBarometerVisibility
10:46 PM
Sun, Apr 26
75 °FPassing clouds.5 mph83%29.57 "Hg8 mi
8:46 PM79 °FPartly sunny.7 mph70%29.56 "Hg10 mi
7:47 PM84 °FPartly sunny.8 mph55%29.55 "Hg10 mi
6:46 PM86 °FBroken clouds.8 mph49%29.49 "Hg10 mi
5:48 PM91 °FPartly sunny.9 mph34%29.54 "Hg10 mi
4:42 PM93 °FPartly sunny.9 mph32%29.55 "Hg10 mi
3:45 PM95 °FPartly sunny.10 mph28%29.59 "Hg12 mi
2:45 PM93 °FScattered clouds.8 mph32%29.60 "Hg10 mi
12:43 PM93 °FBroken clouds.6 mph34%29.64 "Hg10 mi
10:47 AM84 °FBroken clouds.5 mph62%29.72 "Hg10 mi
9:48 AM81 °FBroken clouds.6 mph74%29.70 "Hg6 mi
8:47 AM75 °FBroken clouds.6 mph83%29.73 "Hg4 mi
7:44 AM70 °FPartly cloudy.5 mph94%29.72 "Hg4 mi
6:40 AM70 °FPassing clouds.7 mph94%29.73 "Hg4 mi
5:51 AM70 °FFog.3 mph94%29.70 "Hg3 mi
4:40 AM72 °FFog.No wind94%29.70 "Hg3 mi
3:40 AM72 °FFog.No wind94%29.83 "Hg3 mi
Weather by CustomWeather, © 2015

See weather overviewHow to use our weather pages